OE6NPC-WX Weather Reports


Display with metric or nautical units.
time (UTC)temp
F
wind
direction
speed
MPH
gust
MPH
rain 1hr
in
rain 24hr
in
rain mn
in
humidity
%
barometer
mb
20260503020952 50 0.0 0.0 0.00 0.00 0.00 60 966.8
20260503015948 50 0.0 0.0 0.00 0.00 0.00 60 966.9
20260503014943 50 0.0 0.0 0.00 0.00 0.00 59 966.9
20260503013939 51 0.0 0.0 0.00 0.00 0.00 59 967.0
20260503012935 50 0.0 0.0 0.00 0.00 0.00 59 966.9
20260503011931 51 0.0 0.0 0.00 0.00 0.00 59 967.0
20260503010927 51 0.0 0.0 0.00 0.00 0.00 58 967.1
20260503005922 51 0.0 0.0 0.00 0.00 0.00 58 967.1
20260503004918 51 0.0 0.0 0.00 0.00 0.00 58 967.3
20260503003913 51 0.0 0.0 0.00 0.00 0.00 57 967.3
20260503002909 52 0.0 0.0 0.00 0.00 0.00 56 967.3
20260503001904 52 0.0 0.0 0.00 0.00 0.00 56 967.3
20260503000900 52 0.0 0.0 0.00 0.00 0.00 56 967.5
20260502235855 52 0.0 0.0 0.00 0.00 0.00 56 967.5
20260502234850 52 0.0 0.0 0.00 0.00 0.00 55 967.6
20260502233846 53 0.0 0.0 0.00 0.00 0.00 55 967.7
20260502232841 53 0.0 0.0 0.00 0.00 0.00 55 967.7
20260502231837 53 0.0 0.0 0.00 0.00 0.00 54 967.9
20260502230832 53 0.0 0.0 0.00 0.00 0.00 54 967.9
20260502225828 53 0.0 0.0 0.00 0.00 0.00 54 968.1
20260502224823 53 0.0 0.0 0.00 0.00 0.00 54 968.1
20260502223818 54 0.0 0.0 0.00 0.00 0.00 53 968.1
20260502222814 54 0.0 0.0 0.00 0.00 0.00 53 968.2
20260502221810 54 0.0 0.0 0.00 0.00 0.00 53 968.2
20260502220805 54 0.0 0.0 0.00 0.00 0.00 53 968.2
20260502215801 55 0.0 0.0 0.00 0.00 0.00 52 968.4
20260502214756 55 0.0 0.0 0.00 0.00 0.00 52 968.2
20260502213752 55 0.0 0.0 0.00 0.00 0.00 52 968.3
20260502212747 55 0.0 0.0 0.00 0.00 0.00 51 968.3
20260502211743 56 0.0 0.0 0.00 0.00 0.00 51 968.4
20260502210739 56 0.0 0.0 0.00 0.00 0.00 51 968.4
20260502205735 56 0.0 0.0 0.00 0.00 0.00 50 968.4
20260502204730 56 0.0 0.0 0.00 0.00 0.00 49 968.5
20260502203726 57 0.0 0.0 0.00 0.00 0.00 50 968.5
20260502202721 57 0.0 0.0 0.00 0.00 0.00 48 968.5
20260502201716 57 0.0 0.0 0.00 0.00 0.00 48 968.6
20260502200712 58 0.0 0.0 0.00 0.00 0.00 47 968.5
20260502194702 59 0.0 0.0 0.00 0.00 0.00 45 968.6
20260502193658 59 0.0 0.0 0.00 0.00 0.00 45 968.5
20260502192653 59 0.0 0.0 0.00 0.00 0.00 45 968.6
20260502191648 60 0.0 0.0 0.00 0.00 0.00 44 968.5
20260502190644 60 0.0 0.0 0.00 0.00 0.00 44 968.4
20260502185639 61 0.0 0.0 0.00 0.00 0.00 43 968.4
20260502184635 62 0.0 0.0 0.00 0.00 0.00 40 968.3
20260502183631 62 0.0 0.0 0.00 0.00 0.00 40 968.1
20260502182627 63 0.0 0.0 0.00 0.00 0.00 38 968.1
20260502181623 63 0.0 0.0 0.00 0.00 0.00 37 968.0
20260502180618 64 0.0 0.0 0.00 0.00 0.00 37 967.9
20260502163541 67 0.0 0.0 0.00 0.00 0.00 34 967.5
20260502160529 68 0.0 0.0 0.00 0.00 0.00 31 967.8
20260502151508 69 0.0 0.0 0.00 0.00 0.00 27 968.2
20260502150504 70 0.0 0.0 0.00 0.00 0.00 28 968.3
20260502130414 70 0.0 0.0 0.00 0.00 0.00 26 969.5
20260502123401 70 0.0 0.0 0.00 0.00 0.00 27 969.8
20260502122357 70 0.0 0.0 0.00 0.00 0.00 27 969.9
20260502121353 70 0.0 0.0 0.00 0.00 0.00 27 970.0
20260502120348 70 0.0 0.0 0.00 0.00 0.00 27 970.2
20260502115344 70 0.0 0.0 0.00 0.00 0.00 27 970.3
20260502114339 70 0.0 0.0 0.00 0.00 0.00 26 970.4
20260502113335 70 0.0 0.0 0.00 0.00 0.00 26 970.5
20260502112331 69 0.0 0.0 0.00 0.00 0.00 30 970.5
20260502111326 69 0.0 0.0 0.00 0.00 0.00 27 970.7
20260502110321 69 0.0 0.0 0.00 0.00 0.00 28 970.9
20260502105317 70 0.0 0.0 0.00 0.00 0.00 28 970.9
20260502104312 70 0.0 0.0 0.00 0.00 0.00 28 971.1
20260502103308 70 0.0 0.0 0.00 0.00 0.00 28 971.1
20260502102306 70 0.0 0.0 0.00 0.00 0.00 29 971.2
20260502101259 70 0.0 0.0 0.00 0.00 0.00 28 971.3
20260502100254 70 0.0 0.0 0.00 0.00 0.00 27 971.5
20260502091232 71 0.0 0.0 0.00 0.00 0.00 27 972.1
20260502090228 71 0.0 0.0 0.00 0.00 0.00 26 972.2
20260502071139 69 0.0 0.0 0.00 0.00 0.00 32 972.4
20260502070135 68 0.0 0.0 0.00 0.00 0.00 35 972.4
20260502065130 67 0.0 0.0 0.00 0.00 0.00 38 972.4
20260502064125 66 0.0 0.0 0.00 0.00 0.00 40 972.3
20260502063121 66 0.0 0.0 0.00 0.00 0.00 40 972.3
20260502062117 65 0.0 0.0 0.00 0.00 0.00 40 972.5
20260502061113 64 0.0 0.0 0.00 0.00 0.00 41 972.5
20260502060108 63 0.0 0.0 0.00 0.00 0.00 41 972.5
20260502055104 62 0.0 0.0 0.00 0.00 0.00 42 972.5
20260502054100 61 0.0 0.0 0.00 0.00 0.00 43 972.6
20260502053056 60 0.0 0.0 0.00 0.00 0.00 44 972.6
20260502052052 59 0.0 0.0 0.00 0.00 0.00 44 972.6
20260502051048 58 0.0 0.0 0.00 0.00 0.00 45 972.5
20260502050044 57 0.0 0.0 0.00 0.00 0.00 47 972.5
20260502045039 56 0.0 0.0 0.00 0.00 0.00 49 972.4
20260502044035 54 0.0 0.0 0.00 0.00 0.00 51 972.5
20260502043031 52 0.0 0.0 0.00 0.00 0.00 54 972.4
20260502042027 51 0.0 0.0 0.00 0.00 0.00 57 972.3
20260502041023 49 0.0 0.0 0.00 0.00 0.00 61 972.3
20260502040019 48 0.0 0.0 0.00 0.00 0.00 61 972.3
20260502035014 48 0.0 0.0 0.00 0.00 0.00 61 972.2
20260502034010 48 0.0 0.0 0.00 0.00 0.00 61 972.3
20260502033006 48 0.0 0.0 0.00 0.00 0.00 60 972.2
20260502032002 48 0.0 0.0 0.00 0.00 0.00 61 972.2
20260502030958 48 0.0 0.0 0.00 0.00 0.00 60 972.2
20260502025953 48 0.0 0.0 0.00 0.00 0.00 61 972.2
20260502024949 48 0.0 0.0 0.00 0.00 0.00 60 972.2
20260502023945 48 0.0 0.0 0.00 0.00 0.00 60 972.3
20260502022941 48 0.0 0.0 0.00 0.00 0.00 60 972.3
20260502021937 48 0.0 0.0 0.00 0.00 0.00 60 972.3